ProjectID,Date,Electric Generation,Electric Utility Import,Facility Electric Load
,YYYY-MM-DD,kW,kW,kW
63,2010-05-18,0.0,,0.0
63,2010-05-19,0.0,,0.0
63,2010-05-20,0.0,,0.0
63,2010-05-21,0.0,,0.0
63,2010-05-22,0.0,,0.0
63,2010-05-23,0.0,,0.0
63,2010-05-24,0.0,,0.0
63,2010-05-25,0.0,,0.0
63,2010-05-26,0.0,,0.0
63,2010-05-27,0.0,,0.0
63,2010-05-28,0.0,,0.0
63,2010-05-29,0.0,,0.0
63,2010-05-30,0.0,,0.0
63,2010-05-31,0.0,,0.0
63,2010-06-01,0.0,,0.0
63,2010-06-02,0.0,,0.0
63,2010-06-03,0.0,,0.0
63,2010-06-04,0.0,,0.0
63,2010-06-05,0.0,,0.0
63,2010-06-06,0.0,,0.0
63,2010-06-07,0.0,,0.0
63,2010-06-08,0.0,,0.0
63,2010-06-09,0.0,,0.0
63,2010-06-10,0.0,,0.0
63,2010-06-11,0.0,,0.0
63,2010-06-12,0.0,,0.0
63,2010-06-13,247.64933333333332,,247.64933333333332
63,2010-06-14,553.72,,553.72
63,2010-06-15,551.345,,551.345
63,2010-06-16,549.1366666666667,,549.1366666666667
63,2010-06-17,541.7616666666667,,541.7616666666667
63,2010-06-18,526.3033333333334,,526.3033333333334
63,2010-06-19,534.3033333333334,,534.3033333333334
63,2010-06-20,501.97,,501.97
63,2010-06-21,502.8866666666667,,502.8866666666667
63,2010-06-22,530.72,,530.72
63,2010-06-23,502.3866666666667,,502.3866666666667
63,2010-06-24,462.72,,462.72
63,2010-06-25,491.595,,491.595
63,2010-06-26,479.52204166666667,,479.52204166666667
63,2010-06-27,458.47,,458.47
63,2010-06-28,450.345,,450.345
63,2010-06-29,486.1366666666667,,486.1366666666667
63,2010-06-30,543.0637083333334,,543.0637083333334
63,2010-07-01,540.5116666666667,,540.5116666666667
63,2010-07-02,528.47,,528.47
63,2010-07-03,515.6783333333334,,515.6783333333334
63,2010-07-04,430.4191666666666,,430.4191666666666
63,2010-07-05,450.345,,450.345
63,2010-07-06,414.30333333333334,,414.30333333333334
63,2010-07-07,403.97,,403.97
63,2010-07-08,410.7108333333333,,410.7108333333333
63,2010-07-09,425.80333333333334,,425.80333333333334
63,2010-07-10,433.17833333333334,,433.17833333333334
63,2010-07-11,425.97,,425.97
63,2010-07-12,434.0441666666666,,434.0441666666666
63,2010-07-13,529.095,,529.095
63,2010-07-14,546.22,,546.22
63,2010-07-15,540.6783333333334,,540.6783333333334
63,2010-07-16,485.5858333333333,,485.5858333333333
63,2010-07-17,484.94529166666666,,484.94529166666666
63,2010-07-18,366.1233333333333,,366.1233333333333
63,2010-07-19,507.97,,507.97
63,2010-07-20,449.2525,,449.2525
63,2010-07-21,459.5116666666667,,459.5116666666667
63,2010-07-22,494.7616666666667,,494.7616666666667
63,2010-07-23,524.095,,524.095
63,2010-07-24,455.9608333333333,,455.9608333333333
63,2010-07-25,472.6366666666667,,472.6366666666667
63,2010-07-26,490.17833333333334,,490.17833333333334
63,2010-07-27,481.7616666666667,,481.7616666666667
63,2010-07-28,458.2108333333333,,458.2108333333333
63,2010-07-29,476.72,,476.72
63,2010-07-30,497.55333333333334,,497.55333333333334
63,2010-07-31,502.30333333333334,,502.30333333333334
63,2010-08-01,485.0441666666666,,485.0441666666666
63,2010-08-02,500.17833333333334,,500.17833333333334
63,2010-08-03,496.0116666666667,,496.0116666666667
63,2010-08-04,471.5116666666667,,471.5116666666667
63,2010-08-05,427.5441666666666,,427.5441666666666
63,2010-08-06,464.30333333333334,,464.30333333333334
63,2010-08-07,490.8866666666667,,490.8866666666667
63,2010-08-08,486.7616666666667,,486.7616666666667
63,2010-08-09,453.8358333333333,,453.8358333333333
63,2010-08-10,469.5116666666667,,469.5116666666667
63,2010-08-11,467.6366666666667,,467.6366666666667
63,2010-08-12,497.42833333333334,,497.42833333333334
63,2010-08-13,481.6691666666666,,481.6691666666666
63,2010-08-14,452.67833333333334,,452.67833333333334
63,2010-08-15,453.595,,453.595
63,2010-08-16,485.7616666666667,,485.7616666666667
63,2010-08-17,495.5858333333333,,495.5858333333333
63,2010-08-18,535.97,,535.97
63,2010-08-19,525.72,,525.72
63,2010-08-20,515.595,,515.595
63,2010-08-21,514.1274999999999,,514.1274999999999
63,2010-08-22,543.4283333333334,,543.4283333333334
63,2010-08-23,568.345,,568.345
63,2010-08-24,564.9283333333334,,564.9283333333334
63,2010-08-25,532.702125,,532.702125
63,2010-08-26,503.845,,503.845
63,2010-08-27,544.97,,544.97
63,2010-08-28,525.5024999999999,,525.5024999999999
63,2010-08-29,527.1783333333334,,527.1783333333334
63,2010-08-30,504.42833333333334,,504.42833333333334
63,2010-08-31,468.345,,468.345
63,2010-09-01,468.3866666666667,,468.3866666666667
63,2010-09-02,489.345,,489.345
63,2010-09-03,513.845,,513.845
63,2010-09-04,527.6783333333334,,527.6783333333334
63,2010-09-05,545.595,,545.595
63,2010-09-06,527.1366666666667,,527.1366666666667
63,2010-09-07,520.0533333333334,,520.0533333333334
63,2010-09-08,449.17833333333334,,449.17833333333334
63,2010-09-09,458.2616666666667,,458.2616666666667
63,2010-09-10,522.845,,522.845
63,2010-09-11,534.0533333333334,,534.0533333333334
63,2010-09-12,559.6783333333334,,559.6783333333334
63,2010-09-13,516.0441666666667,,516.0441666666667
63,2010-09-14,525.8035833333333,,525.8035833333333
63,2010-09-15,532.6783333333334,,532.6783333333334
63,2010-09-16,541.845,,541.845
63,2010-09-17,557.2616666666667,,557.2616666666667
63,2010-09-18,559.6366666666667,,559.6366666666667
63,2010-09-19,548.5116666666667,,548.5116666666667
63,2010-09-20,555.6366666666667,,555.6366666666667
63,2010-09-21,523.5116666666667,,523.5116666666667
63,2010-09-22,498.30333333333334,,498.30333333333334
63,2010-09-23,525.8033333333334,,525.8033333333334
63,2010-09-24,511.05333333333334,,511.05333333333334
63,2010-09-25,451.92833333333334,,451.92833333333334
63,2010-09-26,472.7296666666667,,472.7296666666667
63,2010-09-27,473.55333333333334,,473.55333333333334
63,2010-09-28,453.05333333333334,,453.05333333333334
63,2010-09-29,449.8775,,449.8775
63,2010-09-30,483.0858333333333,,483.0858333333333
63,2010-10-01,573.22,,573.22
63,2010-10-02,543.845,,543.845
63,2010-10-03,480.3775,,480.3775
63,2010-10-04,499.0116666666667,,499.0116666666667
63,2010-10-05,513.8866666666667,,513.8866666666667
63,2010-10-06,546.845,,546.845
63,2010-10-07,526.4283333333334,,526.4283333333334
63,2010-10-08,515.9283333333334,,515.9283333333334
63,2010-10-09,542.9283333333334,,542.9283333333334
63,2010-10-10,522.22,,522.22
63,2010-10-11,532.6783333333334,,532.6783333333334
63,2010-10-12,559.4283333333334,,559.4283333333334
63,2010-10-13,558.8033333333334,,558.8033333333334
63,2010-10-14,546.3033333333334,,546.3033333333334
63,2010-10-15,513.0024999999999,,513.0024999999999
63,2010-10-16,532.1366666666667,,532.1366666666667
63,2010-10-17,522.47,,522.47
63,2010-10-18,527.095,,527.095
63,2010-10-19,539.8137083333334,,539.8137083333334
63,2010-10-20,551.345,,551.345
63,2010-10-21,548.22,,548.22
63,2010-10-22,556.095,,556.095
63,2010-10-23,531.5858333333333,,531.5858333333333
63,2010-10-24,528.7616666666667,,528.7616666666667
63,2010-10-25,532.9794166666667,,532.9794166666667
63,2010-10-26,553.095,,553.095
63,2010-10-27,529.9191666666667,,529.9191666666667
63,2010-10-28,548.7616666666667,,548.7616666666667
63,2010-10-29,549.345,,549.345
63,2010-10-30,501.595,,501.595
63,2010-10-31,462.7108333333333,,462.7108333333333
63,2010-11-01,472.67833333333334,,472.67833333333334
63,2010-11-02,498.05333333333334,,498.05333333333334
63,2010-11-03,520.0533333333334,,520.0533333333334
63,2010-11-04,557.3137083333334,,557.3137083333334
63,2010-11-05,550.6783333333334,,550.6783333333334
63,2010-11-06,544.595,,544.595
63,2010-11-07,497.845,,497.845
63,2010-11-08,563.97,,563.97
63,2010-11-09,577.8033333333334,,577.8033333333334
63,2010-11-10,581.0116666666667,,581.0116666666667
63,2010-11-11,567.5116666666667,,567.5116666666667
63,2010-11-12,514.3506666666666,,514.3506666666666
63,2010-11-13,559.3866666666667,,559.3866666666667
63,2010-11-14,515.1366666666667,,515.1366666666667
63,2010-11-15,575.4283333333334,,575.4283333333334
63,2010-11-16,560.9191666666667,,560.9191666666667
63,2010-11-17,558.095,,558.095
63,2010-11-18,557.47,,557.47
63,2010-11-19,559.8033333333334,,559.8033333333334
63,2010-11-20,541.7616666666667,,541.7616666666667
63,2010-11-21,497.17833333333334,,497.17833333333334
63,2010-11-22,489.2616666666667,,489.2616666666667
63,2010-11-23,492.6366666666667,,492.6366666666667
63,2010-11-24,494.5495833333334,,494.5495833333334
63,2010-11-25,518.0533333333334,,518.0533333333334
63,2010-11-26,522.22,,522.22
63,2010-11-27,518.0116666666667,,518.0116666666667
63,2010-11-28,459.5025,,459.5025
63,2010-11-29,492.72,,492.72
63,2010-11-30,305.2625,,305.2625
63,2010-12-01,526.3033333333334,,526.3033333333334
63,2010-12-02,566.3735,,566.3735
63,2010-12-03,564.8033333333334,,564.8033333333334
63,2010-12-04,533.22,,533.22
63,2010-12-05,521.8866666666667,,521.8866666666667
63,2010-12-06,538.0024999999999,,538.0024999999999
63,2010-12-07,586.4283333333334,,586.4283333333334
63,2010-12-08,602.22,,602.22
63,2010-12-09,600.0116666666667,,600.0116666666667
63,2010-12-10,585.0441666666667,,585.0441666666667
63,2010-12-11,563.2616666666667,,563.2616666666667
63,2010-12-12,552.72,,552.72
63,2010-12-13,546.7616666666667,,546.7616666666667
63,2010-12-14,481.14166666666665,,481.14166666666665
63,2010-12-15,511.32666666666665,,511.32666666666665
63,2010-12-16,612.345,,612.345
63,2010-12-17,611.845,,611.845
63,2010-12-18,560.8774999999999,,560.8774999999999
63,2010-12-19,491.1366666666667,,491.1366666666667
63,2010-12-20,445.7616666666667,,445.7616666666667
63,2010-12-21,521.6783333333334,,521.6783333333334
63,2010-12-22,501.919875,,501.919875
63,2010-12-23,495.30333333333334,,495.30333333333334
63,2010-12-24,460.5116666666667,,460.5116666666667
63,2010-12-25,482.095,,482.095
63,2010-12-26,507.4608333333333,,507.4608333333333
63,2010-12-27,541.97,,541.97
63,2010-12-28,527.9283333333334,,527.9283333333334
63,2010-12-29,521.5533333333334,,521.5533333333334
63,2010-12-30,515.6783333333334,,515.6783333333334
63,2010-12-31,510.3866666666667,,510.3866666666667
63,2011-01-01,492.1366666666667,,492.1366666666667
63,2011-01-02,444.05333333333334,,444.05333333333334
63,2011-01-03,466.78545833333334,,466.78545833333334
63,2011-01-04,532.0116666666667,,532.0116666666667
63,2011-01-05,551.5533333333334,,551.5533333333334
63,2011-01-06,547.7941666666667,,547.7941666666667
63,2011-01-07,562.2616666666667,,562.2616666666667
63,2011-01-08,540.845,,540.845
63,2011-01-09,580.0533333333334,,580.0533333333334
63,2011-01-10,586.6691666666667,,586.6691666666667
63,2011-01-11,582.8033333333334,,582.8033333333334
63,2011-01-12,578.5116666666667,,578.5116666666667
63,2011-01-13,568.0533333333334,,568.0533333333334
63,2011-01-14,586.5533333333334,,586.5533333333334
63,2011-01-15,491.6275,,491.6275
63,2011-01-16,498.1366666666667,,498.1366666666667
63,2011-01-17,534.1366666666667,,534.1366666666667
63,2011-01-18,519.095,,519.095
63,2011-01-19,570.6783333333334,,570.6783333333334
63,2011-01-20,561.72,,561.72
63,2011-01-21,539.5116666666667,,539.5116666666667
63,2011-01-22,531.22,,531.22
63,2011-01-23,544.6783333333334,,544.6783333333334
63,2011-01-24,615.8033333333334,,615.8033333333334
63,2011-01-25,598.8866666666667,,598.8866666666667
63,2011-01-26,584.4387083333334,,584.4387083333334
63,2011-01-27,521.8866666666667,,521.8866666666667
63,2011-01-28,509.595,,509.595
63,2011-01-29,502.595,,502.595
63,2011-01-30,484.35537500000004,,484.35537500000004
63,2011-01-31,529.7616666666667,,529.7616666666667
63,2011-02-01,541.1783333333334,,541.1783333333334
63,2011-02-02,577.0210833333333,,577.0210833333333
63,2011-02-03,555.4191666666667,,555.4191666666667
63,2011-02-04,532.1783333333334,,532.1783333333334
63,2011-02-05,503.05333333333334,,503.05333333333334
63,2011-02-06,482.095,,482.095
63,2011-02-07,488.66045833333334,,488.66045833333334
63,2011-02-08,552.1783333333334,,552.1783333333334
63,2011-02-09,552.345,,552.345
63,2011-02-10,546.6783333333334,,546.6783333333334
63,2011-02-11,510.1275,,510.1275
63,2011-02-12,468.595,,468.595
63,2011-02-13,466.595,,466.595
63,2011-02-14,457.80333333333334,,457.80333333333334
63,2011-02-15,483.794875,,483.794875
63,2011-02-16,508.1366666666667,,508.1366666666667
63,2011-02-17,506.595,,506.595
63,2011-02-18,452.72,,452.72
63,2011-02-19,455.0441666666666,,455.0441666666666
63,2011-02-20,477.0116666666667,,477.0116666666667
63,2011-02-21,446.22,,446.22
63,2011-02-22,475.0116666666667,,475.0116666666667
63,2011-02-23,502.4191666666666,,502.4191666666666
63,2011-02-24,519.8033333333334,,519.8033333333334
63,2011-02-25,481.1366666666667,,481.1366666666667
63,2011-02-26,489.80333333333334,,489.80333333333334
63,2011-02-27,451.7108333333333,,451.7108333333333
63,2011-02-28,489.845,,489.845
63,2011-03-01,496.72,,496.72
63,2011-03-02,508.80333333333334,,508.80333333333334
63,2011-03-03,530.3774999999999,,530.3774999999999
63,2011-03-04,534.095,,534.095
63,2011-03-05,483.1366666666667,,483.1366666666667
63,2011-03-06,464.1366666666667,,464.1366666666667
63,2011-03-07,446.97,,446.97
63,2011-03-08,465.55333333333334,,465.55333333333334
63,2011-03-09,484.095,,484.095
63,2011-03-10,478.3866666666667,,478.3866666666667
63,2011-03-11,470.5260416666667,,470.5260416666667
63,2011-03-12,472.80333333333334,,472.80333333333334
63,2011-03-13,445.5116666666667,,445.5116666666667
63,2011-03-14,450.72,,450.72
63,2011-03-15,506.4191666666666,,506.4191666666666
63,2011-03-16,531.47,,531.47
63,2011-03-17,565.97,,565.97
63,2011-03-18,522.8033333333334,,522.8033333333334
63,2011-03-19,511.1275,,511.1275
63,2011-03-20,472.7616666666667,,472.7616666666667
63,2011-03-21,505.67833333333334,,505.67833333333334
63,2011-03-22,544.595,,544.595
63,2011-03-23,540.6604583333334,,540.6604583333334
63,2011-03-24,528.5533333333334,,528.5533333333334
63,2011-03-25,547.3866666666667,,547.3866666666667
63,2011-03-26,530.0116666666667,,530.0116666666667
63,2011-03-27,512.4198749999999,,512.4198749999999
63,2011-03-28,550.0116666666667,,550.0116666666667
63,2011-03-29,516.2616666666667,,516.2616666666667
63,2011-03-30,525.1239583333333,,525.1239583333333
63,2011-03-31,531.766625,,531.766625
63,2011-04-01,495.30333333333334,,495.30333333333334
63,2011-04-02,473.2616666666667,,473.2616666666667
63,2011-04-03,479.5116666666667,,479.5116666666667
63,2011-04-04,501.859375,,501.859375
63,2011-04-05,510.55333333333334,,510.55333333333334
63,2011-04-06,526.5116666666667,,526.5116666666667
63,2011-04-07,548.72,,548.72
63,2011-04-08,520.7616666666667,,520.7616666666667
63,2011-04-09,489.3866666666667,,489.3866666666667
63,2011-04-10,443.72,,443.72
63,2011-04-11,479.2616666666667,,479.2616666666667
63,2011-04-12,524.8033333333334,,524.8033333333334
63,2011-04-13,547.7616666666667,,547.7616666666667
63,2011-04-14,535.72,,535.72
63,2011-04-15,484.095,,484.095
63,2011-04-16,499.1366666666667,,499.1366666666667
63,2011-04-17,464.2616666666667,,464.2616666666667
63,2011-04-18,463.0116666666667,,463.0116666666667
63,2011-04-19,479.7525,,479.7525
63,2011-04-20,541.4283333333334,,541.4283333333334
63,2011-04-21,495.42833333333334,,495.42833333333334
63,2011-04-22,503.5116666666667,,503.5116666666667
63,2011-04-23,474.93870833333335,,474.93870833333335
63,2011-04-24,490.17833333333334,,490.17833333333334
63,2011-04-25,506.2616666666667,,506.2616666666667
63,2011-04-26,526.47,,526.47
63,2011-04-27,526.3774999999999,,526.3774999999999
63,2011-04-28,539.5533333333334,,539.5533333333334
63,2011-04-29,518.3866666666667,,518.3866666666667
63,2011-04-30,464.47,,464.47
63,2011-05-01,456.345,,456.345
63,2011-05-02,509.47,,509.47
63,2011-05-03,541.5116666666667,,541.5116666666667
63,2011-05-04,512.97,,512.97
63,2011-05-05,458.19812499999995,,458.19812499999995
63,2011-05-06,468.72,,468.72
63,2011-05-07,471.1366666666667,,471.1366666666667
63,2011-05-08,431.595,,431.595
63,2011-05-09,460.7941666666666,,460.7941666666666
63,2011-05-10,481.1366666666667,,481.1366666666667
63,2011-05-11,495.17833333333334,,495.17833333333334
63,2011-05-12,467.5210833333333,,467.5210833333333
63,2011-05-13,381.47,,381.47
63,2011-05-14,407.1366666666667,,407.1366666666667
63,2011-05-15,383.47,,383.47
63,2011-05-16,407.47,,407.47
63,2011-05-17,395.2616666666667,,395.2616666666667
63,2011-05-18,439.8499583333333,,439.8499583333333
63,2011-05-19,458.92833333333334,,458.92833333333334
63,2011-05-20,393.345,,393.345
63,2011-05-21,411.80333333333334,,411.80333333333334
63,2011-05-22,379.55333333333334,,379.55333333333334
63,2011-05-23,451.55333333333334,,451.55333333333334
63,2011-05-24,458.47,,458.47
63,2011-05-25,462.37395833333335,,462.37395833333335
63,2011-05-26,467.55333333333334,,467.55333333333334
63,2011-05-27,458.3866666666667,,458.3866666666667
63,2011-05-28,456.8866666666667,,456.8866666666667
63,2011-05-29,442.9608333333333,,442.9608333333333
63,2011-05-30,436.80333333333334,,436.80333333333334
63,2011-05-31,467.42833333333334,,467.42833333333334
63,2011-06-01,483.095,,483.095
63,2011-06-02,456.0858333333333,,456.0858333333333
63,2011-06-03,439.05333333333334,,439.05333333333334
63,2011-06-04,403.095,,403.095
63,2011-06-05,394.345,,394.345
63,2011-06-06,441.23037500000004,,441.23037500000004
63,2011-06-07,464.845,,464.845
63,2011-06-08,471.22,,471.22
63,2011-06-09,480.17833333333334,,480.17833333333334
63,2011-06-10,473.6275,,473.6275
63,2011-06-11,504.095,,504.095
63,2011-06-12,434.05333333333334,,434.05333333333334
63,2011-06-13,454.97,,454.97
63,2011-06-14,476.68870833333335,,476.68870833333335
63,2011-06-15,469.92833333333334,,469.92833333333334
63,2011-06-16,489.2616666666667,,489.2616666666667
63,2011-06-17,500.72,,500.72
63,2011-06-18,483.72,,483.72
63,2011-06-19,457.2108333333333,,457.2108333333333
63,2011-06-20,475.22,,475.22
63,2011-06-21,498.7616666666667,,498.7616666666667
63,2011-06-22,496.8866666666667,,496.8866666666667
63,2011-06-23,499.4191666666666,,499.4191666666666
63,2011-06-24,509.67833333333334,,509.67833333333334
63,2011-06-25,481.5116666666667,,481.5116666666667
63,2011-06-26,463.3866666666667,,463.3866666666667
63,2011-06-27,495.1510416666667,,495.1510416666667
63,2011-06-28,492.7616666666667,,492.7616666666667
63,2011-06-29,469.0441666666666,,469.0441666666666
63,2011-06-30,475.30333333333334,,475.30333333333334
63,2011-07-01,478.2760416666667,,478.2760416666667
63,2011-07-02,484.8866666666667,,484.8866666666667
63,2011-07-03,491.05333333333334,,491.05333333333334
63,2011-07-04,453.3866666666667,,453.3866666666667
63,2011-07-05,444.984375,,444.984375
63,2011-07-06,474.22,,474.22
63,2011-07-07,494.17833333333334,,494.17833333333334
63,2011-07-08,517.0116666666667,,517.0116666666667
63,2011-07-09,476.9191666666666,,476.9191666666666
63,2011-07-10,507.80333333333334,,507.80333333333334
63,2011-07-11,484.17833333333334,,484.17833333333334
63,2011-07-12,462.8866666666667,,462.8866666666667
63,2011-07-13,468.4191666666666,,468.4191666666666
63,2011-07-14,525.095,,525.095
63,2011-07-15,510.42833333333334,,510.42833333333334
63,2011-07-16,497.0116666666667,,497.0116666666667
63,2011-07-17,489.6366666666667,,489.6366666666667
63,2011-07-18,472.3866666666667,,472.3866666666667
63,2011-07-19,474.595,,474.595
63,2011-07-20,490.1366666666667,,490.1366666666667
63,2011-07-21,443.8358333333333,,443.8358333333333
63,2011-07-22,429.55333333333334,,429.55333333333334
63,2011-07-23,436.55333333333334,,436.55333333333334
63,2011-07-24,470.30333333333334,,470.30333333333334
63,2011-07-25,515.0677083333334,,515.0677083333334
63,2011-07-26,496.5116666666667,,496.5116666666667
63,2011-07-27,462.47,,462.47
63,2011-07-28,470.7616666666667,,470.7616666666667
63,2011-07-29,483.9191666666666,,483.9191666666666
63,2011-07-30,510.22,,510.22
63,2011-07-31,517.5533333333334,,517.5533333333334
63,2011-08-01,499.595,,499.595
63,2011-08-02,431.6691666666666,,431.6691666666666
63,2011-08-03,530.9283333333334,,530.9283333333334
63,2011-08-04,496.30333333333334,,496.30333333333334
63,2011-08-05,492.72,,492.72
63,2011-08-06,470.7941666666666,,470.7941666666666
63,2011-08-07,404.22,,404.22
63,2011-08-08,429.42833333333334,,429.42833333333334
63,2011-08-09,474.72,,474.72
63,2011-08-10,442.7941666666666,,442.7941666666666
63,2011-08-11,493.55333333333334,,493.55333333333334
63,2011-08-12,535.3866666666667,,535.3866666666667
63,2011-08-13,534.2616666666667,,534.2616666666667
63,2011-08-14,572.2532083333333,,572.2532083333333
63,2011-08-15,539.47,,539.47
63,2011-08-16,549.0533333333334,,549.0533333333334
63,2011-08-17,530.6366666666667,,530.6366666666667
63,2011-08-18,538.1698749999999,,538.1698749999999
63,2011-08-19,539.9794166666667,,539.9794166666667
63,2011-08-20,536.22,,536.22
63,2011-08-21,532.7616666666667,,532.7616666666667
63,2011-08-22,514.3358333333333,,514.3358333333333
63,2011-08-23,532.1783333333334,,532.1783333333334
63,2011-08-24,535.97,,535.97
63,2011-08-25,539.8033333333334,,539.8033333333334
63,2011-08-26,507.3775,,507.3775
63,2011-08-27,532.22,,532.22
63,2011-08-28,479.47,,479.47
63,2011-08-29,489.67833333333334,,489.67833333333334
63,2011-08-30,495.05333333333334,,495.05333333333334
63,2011-08-31,518.6366666666667,,518.6366666666667
63,2011-09-01,500.0116666666667,,500.0116666666667
63,2011-09-02,510.55333333333334,,510.55333333333334
63,2011-09-03,492.345,,492.345
63,2011-09-04,482.17833333333334,,482.17833333333334
63,2011-09-05,485.3866666666667,,485.3866666666667
63,2011-09-06,527.3866666666667,,527.3866666666667
63,2011-09-07,483.80333333333334,,483.80333333333334
63,2011-09-08,495.92833333333334,,495.92833333333334
63,2011-09-09,488.095,,488.095
63,2011-09-10,497.05333333333334,,497.05333333333334
63,2011-09-11,521.97,,521.97
63,2011-09-12,501.80333333333334,,501.80333333333334
63,2011-09-13,492.095,,492.095
63,2011-09-14,482.55333333333334,,482.55333333333334
63,2011-09-15,512.0116666666667,,512.0116666666667
63,2011-09-16,528.3866666666667,,528.3866666666667
63,2011-09-17,529.0487916666667,,529.0487916666667
63,2011-09-18,523.2987916666667,,523.2987916666667
63,2011-09-19,518.0415416666666,,518.0415416666666
63,2011-09-20,518.72,,518.72
63,2011-09-21,524.4582083333333,,524.4582083333333
63,2011-09-22,471.5441666666666,,471.5441666666666
63,2011-09-23,520.8033333333334,,520.8033333333334
63,2011-09-24,551.595,,551.595
63,2011-09-25,546.095,,546.095
63,2011-09-26,542.47,,542.47
63,2011-09-27,515.2941666666667,,515.2941666666667
63,2011-09-28,503.67833333333334,,503.67833333333334
63,2011-09-29,504.6366666666667,,504.6366666666667
63,2011-09-30,504.2616666666667,,504.2616666666667
63,2011-10-01,493.0441666666666,,493.0441666666666
63,2011-10-02,489.30333333333334,,489.30333333333334
63,2011-10-03,528.3866666666667,,528.3866666666667
63,2011-10-04,498.55333333333334,,498.55333333333334
63,2011-10-05,497.0441666666666,,497.0441666666666
63,2011-10-06,550.345,,550.345
63,2011-10-07,526.97,,526.97
63,2011-10-08,504.97,,504.97
63,2011-10-09,490.5116666666667,,490.5116666666667
63,2011-10-10,496.6366666666667,,496.6366666666667
63,2011-10-11,511.845,,511.845
63,2011-10-12,535.5116666666667,,535.5116666666667
63,2011-10-13,529.6282083333333,,529.6282083333333
63,2011-10-14,511.3866666666667,,511.3866666666667
63,2011-10-15,511.55333333333334,,511.55333333333334
63,2011-10-16,512.845,,512.845
63,2011-10-17,514.8782083333333,,514.8782083333333
63,2011-10-18,522.72,,522.72
63,2011-10-19,526.8866666666667,,526.8866666666667
63,2011-10-20,522.2616666666667,,522.2616666666667
63,2011-10-21,526.3774999999999,,526.3774999999999
63,2011-10-22,544.3866666666667,,544.3866666666667
63,2011-10-23,525.0533333333334,,525.0533333333334
63,2011-10-24,557.5116666666667,,557.5116666666667
63,2011-10-25,537.5024999999999,,537.5024999999999
63,2011-10-26,560.2616666666667,,560.2616666666667
63,2011-10-27,558.9283333333334,,558.9283333333334
63,2011-10-28,545.2616666666667,,545.2616666666667